Weather History for North Adams, MA

Change the Weather History Date:

Sunday, June 16, 2013

  Actual Average Record
Temperature  
Mean Temperature 59 °F -  
Max Temperature 72 °F 74 °F 87 °F (2001)
Min Temperature 46 °F 52 °F 41 °F (1999)
Degree Days  
Heating Degree Days 6    
Growing Degree Days 9 (Base 50)    
Moisture  
Dew Point 50 °F    
Average Humidity 67    
Maximum Humidity 93    
Minimum Humidity 41    
Precipitation  
Precipitation 0.00 in - - ()
Sea Level Pressure  
Sea Level Pressure 29.86 in    
Wind  
Wind Speed 3 mph (WSW)    
Max Wind Speed 12 mph    
Max Gust Speed 25 mph    
Visibility 10 miles    
Events Rain    
Averages and records for this station are not official NWS values.
T = Trace of Precipitation, MM = Missing Value Source: NWS Daily Summary

Daily Weather History Graph

Daily Weather History Graph

Search for Another Location

Airport:

Trip Planner

Search our weather history database for the weather conditions in past years. The results will help you decide how hot, cold, wet, or windy it might be!

Date:

Astronomy

Jun. 16, 2013 Rise Set
Actual Time 5:14 AM EDT 8:32 PM EDT
Civil Twilight 4:39 AM EDT 9:08 PM EDT
Nautical Twilight 3:53 AM EDT 9:53 PM EDT
Astronomical Twilight 2:57 AM EDT 10:49 PM EDT
Moon 12:57 PM EDT (6/16) 12:27 AM EDT (6/16)
Length of Visible Light 16h 29m
Length of Day
15h 18m
Waxing Crescent, 49% of the Moon is Illuminated
Jun 16
Waxing Crescent
Jun 16
First Quarter
Jun 23
Full
Jun 30
Last Quarter
Jul 8
New

Hourly Weather History & Observations

Time (EDT) Temp. Dew Point Humidity Pressure Visibility Wind Dir Wind Speed Gust Speed Precip Events Conditions
12:52 AM 48.0 °F 46.0 °F 93% 29.97 in 10.0 mi Calm Calm - N/A   Clear
1:52 AM 46.9 °F 45.0 °F 93% 29.98 in 10.0 mi Calm Calm - N/A   Clear
2:52 AM 48.0 °F 45.0 °F 89% 29.97 in 10.0 mi Calm Calm - N/A   Clear
3:52 AM 46.9 °F 45.0 °F 93% 29.97 in 9.0 mi Calm Calm - N/A   Clear
4:52 AM 46.9 °F 45.0 °F 93% 29.96 in 8.0 mi Calm Calm - N/A   Clear
5:52 AM 48.0 °F 46.0 °F 93% 29.96 in 9.0 mi Calm Calm - N/A   Clear
6:52 AM 50.0 °F 48.0 °F 93% 29.97 in 10.0 mi Calm Calm - N/A   Clear
7:52 AM 54.0 °F 50.0 °F 86% 29.95 in 10.0 mi Calm Calm - N/A   Scattered Clouds
8:52 AM 61.0 °F 46.9 °F 60% 29.94 in 10.0 mi ESE 8.1 mph - N/A   Partly Cloudy
9:52 AM 66.0 °F 48.0 °F 52% 29.91 in 10.0 mi ESE 8.1 mph - N/A   Clear
10:15 AM 66.2 °F 46.4 °F 49% 29.90 in 10.0 mi East 6.9 mph - N/A   Partly Cloudy
10:52 AM 68.0 °F 48.9 °F 50% 29.88 in 10.0 mi ESE 5.8 mph - N/A   Partly Cloudy
11:52 AM 70.0 °F 50.0 °F 49% 29.86 in 10.0 mi Variable 4.6 mph - N/A   Clear
12:52 PM 72.0 °F 48.9 °F 44% 29.83 in 10.0 mi Variable 3.5 mph - N/A   Scattered Clouds
1:52 PM 71.1 °F 46.9 °F 42% 29.80 in 10.0 mi SSW 11.5 mph 18.4 mph N/A   Mostly Cloudy
2:52 PM 71.1 °F 46.0 °F 41% 29.76 in 10.0 mi Variable 5.8 mph 25.3 mph 0.00 in   Overcast
3:52 PM 69.1 °F 48.9 °F 49% 29.75 in 10.0 mi Calm Calm - 0.00 in Rain Light Rain
4:52 PM 70.0 °F 51.1 °F 51% 29.73 in 10.0 mi Variable 4.6 mph - 0.00 in   Overcast
5:52 PM 69.1 °F 53.1 °F 57% 29.72 in 10.0 mi NW 4.6 mph - N/A   Overcast
6:52 PM 68.0 °F 54.0 °F 61% 29.73 in 10.0 mi Calm Calm - N/A   Overcast
7:52 PM 69.1 °F 55.0 °F 61% 29.75 in 10.0 mi Variable 3.5 mph - N/A   Overcast
7:59 PM 69.8 °F 55.4 °F 60% 29.76 in 10.0 mi West 4.6 mph - N/A   Overcast
8:52 PM 68.0 °F 55.0 °F 63% 29.79 in 10.0 mi WNW 8.1 mph 20.7 mph N/A   Overcast
9:52 PM 66.9 °F 55.0 °F 66% 29.82 in 10.0 mi West 8.1 mph - N/A   Overcast
10:39 PM 66.2 °F 55.4 °F 68% 29.83 in 10.0 mi WSW 9.2 mph - N/A   Overcast
10:52 PM 64.9 °F 55.0 °F 70% 29.83 in 10.0 mi West 5.8 mph - N/A   Overcast
11:52 PM 64.0 °F 54.0 °F 70% 29.83 in 10.0 mi West 5.8 mph - N/A   Overcast